Change the Weather History Date:

Sunday, September 1, 2013

  Actual Average Record
Temperature  
Mean Temperature 38 °F -  
Max Temperature 45 °F 44 °F 52 °F (2010)
Min Temperature 30 °F 37 °F 30 °F (2006)
Degree Days  
Heating Degree Days 28    
Moisture  
Dew Point 31 °F    
Average Humidity 82    
Maximum Humidity 96    
Minimum Humidity 58    
Precipitation  
Precipitation 0.00 in - - ()
Sea Level Pressure  
Sea Level Pressure 29.96 in    
Wind  
Wind Speed 11 mph (ENE)    
Max Wind Speed 17 mph    
Max Gust Speed 21 mph    
Visibility 10 miles    
Events      
Averages and records for this station are not official NWS values.
T = Trace of Precipitation, MM = Missing Value Source: NWS Daily Summary

Daily Weather History Graph

Daily Weather History Graph

Search for Another Location

Airport or City:

Trip Planner

Search our weather history database for the weather conditions in past years. The results will help you decide how hot, cold, wet, or windy it might be!

Date:

Astronomy

Sep. 01, 2013 Rise Set
Actual Time 7:11 AM AKDT 10:29 PM AKDT
Civil Twilight 5:57 AM AKDT 11:41 PM AKDT
Nautical Twilight 3:19 AM AKDT 2:01 AM AKDT
Astronomical Twilight Sun does not rise Sun does not rise
Moon 2:09 AM AKDT 9:19 PM AKDT
Length of Visible Light 17h 44m
Length of Day
15h 18m
Waning Crescent, 13% of the Moon is Illuminated
Sep 1
Waning Crescent
Sep 5
New
Sep 12
First Quarter
Sep 19
Full
Sep 26
Last Quarter

Hourly Weather History & Observations

Time (AKDT) Temp. Windchill Dew Point Humidity Pressure Visibility Wind Dir Wind Speed Gust Speed Precip Events Conditions
12:14 AM 33.8 °F 27.0 °F 30.2 °F 87% 30.02 in 10.0 mi NE 8.1 mph - N/A   Mostly Cloudy
12:56 AM 32.9 °F 25.9 °F 32.0 °F 96% 30.04 in 10.0 mi ENE 8.1 mph - N/A   Overcast
1:56 AM 32.9 °F 26.7 °F 31.1 °F 93% 30.04 in 10.0 mi ENE 6.9 mph - N/A   Overcast
2:39 AM 30.2 °F 21.9 °F 28.4 °F 93% 30.03 in 10.0 mi ENE 9.2 mph - N/A   Scattered Clouds
2:46 AM 30.2 °F 22.6 °F 28.4 °F 93% 30.03 in 10.0 mi ENE 8.1 mph - N/A   Mostly Cloudy
2:56 AM 31.1 °F 23.1 °F 30.0 °F 96% 30.04 in 10.0 mi ENE 9.2 mph - N/A   Mostly Cloudy
3:56 AM 32.9 °F 24.7 °F 30.0 °F 89% 30.04 in 10.0 mi ENE 10.4 mph - N/A   Mostly Cloudy
4:56 AM 32.9 °F 25.9 °F 30.0 °F 89% 30.03 in 10.0 mi NE 8.1 mph - N/A   Overcast
5:56 AM 32.9 °F 24.7 °F 30.0 °F 89% 30.03 in 10.0 mi ENE 10.4 mph - N/A   Overcast
6:56 AM 32.0 °F 23.6 °F 30.0 °F 92% 30.03 in 10.0 mi ENE 10.4 mph - N/A   Overcast
7:30 AM 32.0 °F 23.6 °F 28.4 °F 87% 30.01 in 10.0 mi ENE 10.4 mph - N/A   Scattered Clouds
7:56 AM 32.0 °F 23.6 °F 30.0 °F 92% 30.01 in 10.0 mi ENE 10.4 mph - N/A   Partly Cloudy
8:56 AM 32.9 °F 25.3 °F 30.0 °F 89% 30.01 in 10.0 mi ENE 9.2 mph - N/A   Clear
9:56 AM 34.0 °F 25.0 °F 31.1 °F 89% 30.00 in 10.0 mi ENE 12.7 mph - N/A   Clear
10:56 AM 36.0 °F 27.1 °F 31.1 °F 82% 29.99 in 10.0 mi ENE 13.8 mph - N/A   Clear
11:56 AM 36.9 °F 27.5 °F 31.1 °F 80% 29.99 in 10.0 mi East 16.1 mph - N/A   Partly Cloudy
12:56 PM 37.9 °F 29.2 °F 32.0 °F 79% 29.97 in 10.0 mi East 15.0 mph - N/A   Clear
1:56 PM 39.9 °F 31.1 °F 32.0 °F 73% 29.96 in 10.0 mi ENE 17.3 mph - N/A   Clear
2:56 PM 41.9 °F 34.3 °F 32.9 °F 70% 29.95 in 10.0 mi ENE 15.0 mph - N/A   Clear
3:56 PM 43.0 °F 36.0 °F 32.0 °F 65% 29.93 in 10.0 mi ENE 13.8 mph - N/A   Clear
4:56 PM 43.9 °F 36.8 °F 30.0 °F 58% 29.91 in 10.0 mi ENE 15.0 mph 20.7 mph N/A   Clear
5:56 PM 45.0 °F 38.2 °F 31.1 °F 58% 29.88 in 10.0 mi ENE 15.0 mph - N/A   Clear
6:56 PM 43.9 °F 37.2 °F 31.1 °F 61% 29.87 in 10.0 mi ENE 13.8 mph - N/A   Clear
7:56 PM 43.0 °F 35.4 °F 32.0 °F 65% 29.86 in 10.0 mi ENE 16.1 mph - N/A   Clear
8:56 PM 41.0 °F 33.1 °F 32.0 °F 70% 29.84 in 10.0 mi ENE 15.0 mph - N/A   Clear
9:56 PM 37.9 °F 29.2 °F 31.1 °F 76% 29.83 in 10.0 mi NE 15.0 mph - N/A   Clear
10:56 PM 34.9 °F 25.3 °F 30.0 °F 82% 29.82 in 10.0 mi NE 15.0 mph - N/A   Clear
11:56 PM 32.9 °F 23.2 °F 30.0 °F 89% 29.81 in 10.0 mi NE 13.8 mph - N/A   Clear